Weather History for Whitefield, NH

Change the Weather History Date:

Thursday, February 21, 2013

  Actual Average Record
Temperature  
Mean Temperature 14 °F -  
Max Temperature 21 °F 29 °F 45 °F (2002)
Min Temperature 8 °F 2 °F -9 °F (2011)
Degree Days  
Heating Degree Days 50    
Moisture  
Dew Point 7 °F    
Average Humidity 73    
Maximum Humidity 84    
Minimum Humidity 62    
Precipitation  
Precipitation 0.01 in - - ()
Sea Level Pressure  
Sea Level Pressure 29.91 in    
Wind  
Wind Speed 6 mph (West)    
Max Wind Speed 14 mph    
Max Gust Speed 16 mph    
Visibility 5 miles    
Events Snow    
Averages and records for this station are not official NWS values.
T = Trace of Precipitation, MM = Missing Value Source: NWS Daily Summary

Daily Weather History Graph

Daily Weather History Graph

Search for Another Location

Airport:

Trip Planner

Search our weather history database for the weather conditions in past years. The results will help you decide how hot, cold, wet, or windy it might be!

Date:

Astronomy

Feb. 21, 2013 Rise Set
Actual Time 6:36 AM EST 5:23 PM EST
Civil Twilight 6:06 AM EST 5:53 PM EST
Nautical Twilight 5:33 AM EST 6:27 PM EST
Astronomical Twilight 4:59 AM EST 7:00 PM EST
Moon 1:29 PM EST (2/21) 3:45 AM EST (2/21)
Length of Visible Light 11h 46m
Length of Day
10h 47m
Waxing Gibbous, 83% of the Moon is Illuminated
Feb 21
Waxing Gibbous
Feb 25
Full
Mar 4
Last Quarter
Mar 11
New
Mar 19
First Quarter

Hourly Weather History & Observations

Time (EST) Temp. Windchill Dew Point Humidity Pressure Visibility Wind Dir Wind Speed Gust Speed Precip Events Conditions
12:52 AM 21.0 °F 14.6 °F 16.0 °F 81% 29.71 in 5.0 mi Variable 4.6 mph - 0.00 in Snow Light Snow
12:59 AM 21.2 °F 10.1 °F 15.8 °F 80% 29.66 in 6.0 mi WNW 10.4 mph - 0.00 in Snow Light Snow
1:52 AM 18.0 °F 4.2 °F 10.0 °F 71% 29.73 in 9.0 mi WNW 13.8 mph - 0.00 in Snow Light Snow
2:14 AM 17.6 °F 6.4 °F 8.6 °F 68% 29.69 in 10.0 mi West 9.2 mph - 0.00 in   Overcast
2:52 AM 15.1 °F 7.7 °F 6.1 °F 68% 29.76 in 10.0 mi SW 4.6 mph - 0.00 in   Overcast
3:25 AM 14.0 °F 5.1 °F 6.8 °F 73% 29.71 in 10.0 mi NW 5.8 mph - N/A   Overcast
3:47 AM 14.0 °F 2.0 °F 3.2 °F 62% 29.72 in 10.0 mi WNW 9.2 mph - N/A   Overcast
3:52 AM 14.0 °F 3.9 °F 3.9 °F 64% 29.78 in 10.0 mi NW 6.9 mph - N/A   Overcast
4:52 AM 12.9 °F 2.6 °F 3.0 °F 65% 29.79 in 10.0 mi WSW 6.9 mph 16.1 mph N/A   Overcast
5:52 AM 12.0 °F 2.7 °F 1.9 °F 64% 29.82 in 8.0 mi West 5.8 mph - 0.00 in Snow Light Snow
6:22 AM 10.4 °F 2.2 °F 3.2 °F 73% 29.77 in 4.0 mi Variable 4.6 mph - 0.00 in Snow Light Snow
6:47 AM 10.4 °F 0.8 °F 3.2 °F 73% 29.78 in 2.5 mi NW 5.8 mph - 0.00 in Snow Light Snow
6:49 AM 8.6 °F -1.3 °F 3.2 °F 79% 29.78 in 3.0 mi NW 5.8 mph - 0.00 in Snow Light Snow
6:52 AM 9.0 °F 0.6 °F 3.0 °F 77% 29.84 in 5.0 mi NW 4.6 mph - 0.00 in Snow Light Snow
7:41 AM 10.4 °F 2.2 °F 3.2 °F 73% 29.80 in 1.8 mi West 4.6 mph - 0.00 in Snow Light Snow
7:52 AM 10.0 °F - 3.9 °F 76% 29.87 in 1.2 mi Calm Calm - 0.00 in Snow Light Snow
8:18 AM 10.4 °F -0.4 °F 3.2 °F 73% 29.82 in 5.0 mi West 6.9 mph - 0.00 in Snow Light Snow
8:31 AM 10.4 °F -1.5 °F 3.2 °F 73% 29.82 in 2.5 mi West 8.1 mph - 0.00 in Snow Light Snow
8:52 AM 9.0 °F -2.2 °F 1.0 °F 70% 29.90 in 3.0 mi West 6.9 mph - 0.00 in Snow Light Snow
9:09 AM 8.6 °F -2.6 °F 1.4 °F 73% 29.84 in 3.0 mi WNW 6.9 mph - 0.00 in Snow Light Snow
9:16 AM 8.6 °F -2.6 °F 1.4 °F 73% 29.83 in 2.5 mi West 6.9 mph - 0.00 in Snow Light Snow
9:23 AM 8.6 °F -5.5 °F 1.4 °F 73% 29.84 in 3.0 mi West 10.4 mph - 0.00 in Snow Light Snow
9:30 AM 10.4 °F -1.5 °F 1.4 °F 67% 29.84 in 3.0 mi West 8.1 mph - 0.00 in Snow Light Snow
9:37 AM 10.4 °F -0.4 °F 1.4 °F 67% 29.84 in 1.8 mi West 6.9 mph - 0.00 in Snow Light Snow
9:52 AM 10.0 °F 0.4 °F 3.0 °F 73% 29.91 in 1.5 mi West 5.8 mph - 0.00 in Snow Light Snow
10:13 AM 10.4 °F 0.8 °F 3.2 °F 73% 29.85 in 2.5 mi West 5.8 mph - 0.00 in Snow Light Snow
10:17 AM 10.4 °F -0.4 °F 3.2 °F 73% 29.85 in 3.0 mi West 6.9 mph - 0.00 in Snow Light Snow
10:52 AM 10.9 °F 2.9 °F 3.0 °F 70% 29.92 in 5.0 mi West 4.6 mph - 0.00 in Snow Light Snow
11:12 AM 10.4 °F 0.8 °F 1.4 °F 67% 29.86 in 3.0 mi West 5.8 mph - 0.00 in Snow Light Snow
11:22 AM 12.2 °F 4.3 °F 3.2 °F 67% 29.86 in 2.5 mi West 4.6 mph - 0.00 in Snow Light Snow
11:52 AM 12.0 °F - 3.9 °F 70% 29.94 in 2.5 mi Calm Calm - 0.00 in Snow Light Snow
12:30 PM 12.2 °F 4.3 °F 5.0 °F 73% 29.87 in 3.0 mi WSW 4.6 mph - 0.00 in Snow Light Snow
12:52 PM 14.0 °F 6.5 °F 6.1 °F 71% 29.94 in 4.0 mi WNW 4.6 mph - 0.00 in Snow Light Snow
1:08 PM 15.8 °F 6.1 °F 6.8 °F 68% 29.88 in 2.5 mi NW 6.9 mph - 0.00 in Snow Light Snow
1:21 PM 15.8 °F 6.1 °F 6.8 °F 68% 29.89 in 1.8 mi West 6.9 mph - 0.00 in Snow Light Snow
1:38 PM 15.8 °F 5.1 °F 6.8 °F 68% 29.89 in 2.5 mi WNW 8.1 mph - 0.00 in Snow Light Snow
1:45 PM 15.8 °F 7.2 °F 8.6 °F 73% 29.89 in 3.0 mi WNW 5.8 mph - 0.00 in Snow Light Snow
2:11 PM 15.8 °F 6.1 °F 8.6 °F 73% 29.90 in 1.5 mi WNW 6.9 mph - 0.00 in Snow Light Snow
2:21 PM 17.6 °F 12.3 °F 8.6 °F 68% 29.91 in 2.0 mi Variable 3.5 mph - 0.00 in Snow Light Snow
2:52 PM 17.1 °F 10.0 °F 10.0 °F 74% 30.00 in 2.0 mi NNW 4.6 mph - 0.00 in Snow Light Snow
3:19 PM 17.6 °F 12.3 °F 10.4 °F 73% 29.95 in 1.2 mi NNW 3.5 mph - 0.00 in Snow Light Snow
3:52 PM 17.1 °F - 10.9 °F 77% 30.04 in 1.0 mi Calm Calm - 0.01 in Snow Light Snow
4:06 PM 17.6 °F - 12.2 °F 79% 29.98 in 1.2 mi Calm Calm - 0.00 in Snow Light Snow
4:40 PM 17.6 °F - 12.2 °F 79% 30.00 in 2.5 mi Calm Calm - 0.00 in Snow Light Snow
4:47 PM 17.6 °F - 12.2 °F 79% 30.00 in 4.0 mi Calm Calm - 0.00 in Snow Light Snow
4:52 PM 17.1 °F - 12.0 °F 81% 30.08 in 5.0 mi Calm Calm - 0.00 in Snow Light Snow
5:16 PM 17.6 °F 12.3 °F 10.4 °F 73% 30.03 in 8.0 mi West 3.5 mph - 0.00 in Snow Light Snow
5:52 PM 18.0 °F - 10.9 °F 74% 30.13 in 10.0 mi Calm Calm - 0.00 in   Overcast
6:52 PM 17.1 °F - 12.9 °F 84% 30.17 in 10.0 mi Calm Calm - 0.00 in   Overcast
7:39 PM 17.6 °F - 10.4 °F 73% 30.13 in 10.0 mi Calm Calm - N/A   Overcast
7:52 PM 19.0 °F - 10.9 °F 71% 30.20 in 10.0 mi Calm Calm - N/A   Overcast
8:33 PM 15.8 °F 8.6 °F 10.4 °F 79% 30.14 in 10.0 mi South 4.6 mph - N/A   Mostly Cloudy
8:52 PM 15.1 °F 9.4 °F 10.9 °F 84% 30.22 in 10.0 mi South 3.5 mph - N/A   Mostly Cloudy
9:52 PM 14.0 °F - 9.0 °F 80% 30.23 in 10.0 mi Calm Calm - N/A   Overcast
10:52 PM 12.9 °F - 9.0 °F 84% 30.26 in 10.0 mi Calm Calm - N/A   Overcast
11:52 PM 17.1 °F - 12.9 °F 84% 30.30 in 10.0 mi Calm Calm - N/A   Overcast